Year,Month,Day,Hour,Minute,Value (Times are PST for temperature in C)
2008,05,19,00,00,13.90
2008,05,19,00,01,13.90
2008,05,19,00,02,13.90
2008,05,19,00,03,13.90
2008,05,19,00,04,13.90
2008,05,19,00,05,13.90
2008,05,19,00,06,13.90
2008,05,19,00,07,13.90
2008,05,19,00,08,13.90
2008,05,19,00,09,13.90
2008,05,19,00,10,13.90
2008,05,19,00,11,13.90
2008,05,19,00,12,13.90
2008,05,19,00,13,13.90
2008,05,19,00,14,13.90
2008,05,19,00,15,13.90
2008,05,19,00,16,13.90
2008,05,19,00,17,13.90
2008,05,19,00,18,13.90
2008,05,19,00,19,13.90
2008,05,19,00,20,13.90
2008,05,19,00,21,13.90
2008,05,19,00,22,13.80
2008,05,19,00,23,13.80
2008,05,19,00,24,13.80
2008,05,19,00,25,13.80
2008,05,19,00,26,13.80
2008,05,19,00,27,13.80
2008,05,19,00,28,13.70
2008,05,19,00,29,13.70
2008,05,19,00,30,13.70
2008,05,19,00,31,13.70
2008,05,19,00,32,13.70
2008,05,19,00,33,13.70
2008,05,19,00,34,13.70
2008,05,19,00,35,13.60
2008,05,19,00,36,13.60
2008,05,19,00,37,13.60
2008,05,19,00,38,13.60
2008,05,19,00,39,13.60
2008,05,19,00,40,13.60
2008,05,19,00,41,13.60
2008,05,19,00,42,13.50
2008,05,19,00,43,13.50
2008,05,19,00,44,13.50
2008,05,19,00,45,13.50
2008,05,19,00,46,13.50
2008,05,19,00,47,13.50
2008,05,19,00,48,13.40
2008,05,19,00,49,13.40
2008,05,19,00,50,13.40
2008,05,19,00,51,13.40
2008,05,19,00,52,13.40
2008,05,19,00,53,13.40
2008,05,19,00,54,13.40
2008,05,19,00,55,13.40
2008,05,19,00,56,13.40
2008,05,19,00,57,13.40
2008,05,19,00,58,13.40
2008,05,19,00,59,13.40
2008,05,19,01,00,13.40
2008,05,19,01,01,13.40
2008,05,19,01,02,13.40
2008,05,19,01,03,13.40
2008,05,19,01,04,13.40
2008,05,19,01,05,13.50
2008,05,19,01,06,13.50
2008,05,19,01,07,13.50
2008,05,19,01,08,13.50
2008,05,19,01,09,13.50
2008,05,19,01,10,13.50
2008,05,19,01,11,13.50
2008,05,19,01,12,13.50
2008,05,19,01,13,13.50
2008,05,19,01,14,13.50
2008,05,19,01,15,13.50
2008,05,19,01,16,13.40
2008,05,19,01,17,13.40
2008,05,19,01,18,13.50
2008,05,19,01,19,13.40
2008,05,19,01,20,13.50
2008,05,19,01,21,13.50
2008,05,19,01,22,13.50
2008,05,19,01,23,13.50
2008,05,19,01,24,13.50
2008,05,19,01,25,13.50
2008,05,19,01,26,13.50
2008,05,19,01,27,13.50
2008,05,19,01,28,13.50
2008,05,19,01,29,13.50
2008,05,19,01,30,13.50
2008,05,19,01,31,13.50
2008,05,19,01,32,13.50
2008,05,19,01,33,13.50
2008,05,19,01,34,13.50
2008,05,19,01,35,13.50
2008,05,19,01,36,13.50
2008,05,19,01,37,13.50
2008,05,19,01,38,13.50
2008,05,19,01,39,13.50
2008,05,19,01,40,13.50
2008,05,19,01,41,13.50
2008,05,19,01,42,13.50
2008,05,19,01,43,13.50
2008,05,19,01,44,13.50
2008,05,19,01,45,13.50
2008,05,19,01,46,13.50
2008,05,19,01,47,13.50
2008,05,19,01,48,13.40
2008,05,19,01,49,13.50
2008,05,19,01,50,13.50
2008,05,19,01,51,13.50
2008,05,19,01,52,13.50
2008,05,19,01,53,13.50
2008,05,19,01,54,13.50
2008,05,19,01,55,13.50
2008,05,19,01,56,13.50
2008,05,19,01,57,13.50
2008,05,19,01,58,13.50
2008,05,19,01,59,13.50
2008,05,19,02,00,13.50
2008,05,19,02,01,13.50
2008,05,19,02,02,13.50
2008,05,19,02,03,13.50
2008,05,19,02,04,13.50
2008,05,19,02,05,13.50
2008,05,19,02,06,13.50
2008,05,19,02,07,13.50
2008,05,19,02,08,13.50
2008,05,19,02,09,13.50
2008,05,19,02,10,13.50
2008,05,19,02,11,13.50
2008,05,19,02,12,13.50
2008,05,19,02,13,13.60
2008,05,19,02,14,13.50
2008,05,19,02,15,13.50
2008,05,19,02,16,13.60
2008,05,19,02,17,13.60
2008,05,19,02,18,13.60
2008,05,19,02,19,13.60
2008,05,19,02,20,13.60
2008,05,19,02,21,13.60
2008,05,19,02,22,13.60
2008,05,19,02,23,13.50
2008,05,19,02,24,13.50
2008,05,19,02,25,13.50
2008,05,19,02,26,13.50
2008,05,19,02,27,13.50
2008,05,19,02,28,13.50
2008,05,19,02,29,13.50
2008,05,19,02,30,13.50
2008,05,19,02,31,13.50
2008,05,19,02,32,13.50
2008,05,19,02,33,13.50
2008,05,19,02,34,13.50
2008,05,19,02,35,13.50
2008,05,19,02,36,13.60
2008,05,19,02,37,13.60
2008,05,19,02,38,13.70
2008,05,19,02,39,13.80
2008,05,19,02,40,13.90
2008,05,19,02,41,13.90
2008,05,19,02,42,14.00
2008,05,19,02,43,14.00
2008,05,19,02,44,14.00
2008,05,19,02,45,14.00
2008,05,19,02,46,14.00
2008,05,19,02,47,14.00
2008,05,19,02,48,14.00
2008,05,19,02,49,13.90
2008,05,19,02,50,13.90
2008,05,19,02,51,13.90
2008,05,19,02,52,13.90
2008,05,19,02,53,13.90
2008,05,19,02,54,13.90
2008,05,19,02,55,13.90
2008,05,19,02,56,13.80
2008,05,19,02,57,13.80
2008,05,19,02,58,13.80
2008,05,19,02,59,13.80
2008,05,19,03,00,13.80
2008,05,19,03,01,13.70
2008,05,19,03,02,13.70
2008,05,19,03,03,13.70
2008,05,19,03,04,13.60
2008,05,19,03,05,13.60
2008,05,19,03,06,13.50
2008,05,19,03,07,13.50
2008,05,19,03,08,13.50
2008,05,19,03,09,13.40
2008,05,19,03,10,13.40
2008,05,19,03,11,13.30
2008,05,19,03,12,13.30
2008,05,19,03,13,13.30
2008,05,19,03,14,13.30
2008,05,19,03,15,13.30
2008,05,19,03,16,13.30
2008,05,19,03,17,13.30
2008,05,19,03,18,13.30
2008,05,19,03,19,13.30
2008,05,19,03,20,13.30
2008,05,19,03,21,13.30
2008,05,19,03,22,13.30
2008,05,19,03,23,13.30
2008,05,19,03,24,13.30
2008,05,19,03,25,13.30
2008,05,19,03,26,13.30
2008,05,19,03,27,13.30
2008,05,19,03,28,13.30
2008,05,19,03,29,13.30
2008,05,19,03,30,13.30
2008,05,19,03,31,13.30
2008,05,19,03,32,13.20
2008,05,19,03,33,13.20
2008,05,19,03,34,13.20
2008,05,19,03,35,13.20
2008,05,19,03,36,13.20
2008,05,19,03,37,13.20
2008,05,19,03,38,13.20
2008,05,19,03,39,13.20
2008,05,19,03,40,13.20
2008,05,19,03,41,13.20
2008,05,19,03,42,13.20
2008,05,19,03,43,13.20
2008,05,19,03,44,13.20
2008,05,19,03,45,13.20
2008,05,19,03,46,13.20
2008,05,19,03,47,13.20
2008,05,19,03,48,13.20
2008,05,19,03,49,13.20
2008,05,19,03,50,13.20
2008,05,19,03,51,13.20
2008,05,19,03,52,13.20
2008,05,19,03,53,13.20
2008,05,19,03,54,13.20
2008,05,19,03,55,13.20
2008,05,19,03,56,13.20
2008,05,19,03,57,13.10
2008,05,19,03,58,13.10
2008,05,19,03,59,13.10
2008,05,19,04,00,13.20
2008,05,19,04,01,13.10
2008,05,19,04,02,13.10
2008,05,19,04,03,13.20
2008,05,19,04,04,13.10
2008,05,19,04,05,13.10
2008,05,19,04,06,13.20
2008,05,19,04,07,13.20
2008,05,19,04,08,13.20
2008,05,19,04,09,13.20
2008,05,19,04,10,13.30
2008,05,19,04,11,13.30
2008,05,19,04,12,13.30
2008,05,19,04,13,13.30
2008,05,19,04,14,13.40
2008,05,19,04,15,13.40
2008,05,19,04,16,13.40
2008,05,19,04,17,13.40
2008,05,19,04,18,13.40
2008,05,19,04,19,13.40
2008,05,19,04,20,13.40
2008,05,19,04,21,13.40
2008,05,19,04,22,13.40
2008,05,19,04,23,13.40
2008,05,19,04,24,13.40
2008,05,19,04,25,13.30
2008,05,19,04,26,13.30
2008,05,19,04,27,13.30
2008,05,19,04,28,13.20
2008,05,19,04,29,13.20
2008,05,19,04,30,13.10
2008,05,19,04,31,13.00
2008,05,19,04,32,12.90
2008,05,19,04,33,12.90
2008,05,19,04,34,12.80
2008,05,19,04,35,12.80
2008,05,19,04,36,12.70
2008,05,19,04,37,12.70
2008,05,19,04,38,12.60
2008,05,19,04,39,12.60
2008,05,19,04,40,12.50
2008,05,19,04,41,12.50
2008,05,19,04,42,12.40
2008,05,19,04,43,12.40
2008,05,19,04,44,12.40
2008,05,19,04,45,12.40
2008,05,19,04,46,12.30
2008,05,19,04,47,12.30
2008,05,19,04,48,12.30
2008,05,19,04,49,12.30
2008,05,19,04,50,12.30
2008,05,19,04,51,12.30
2008,05,19,04,52,12.30
2008,05,19,04,53,12.30
2008,05,19,04,54,12.20
2008,05,19,04,55,12.20
2008,05,19,04,56,12.20
2008,05,19,04,57,12.20
2008,05,19,04,58,12.20
2008,05,19,04,59,12.20
2008,05,19,05,00,12.20
2008,05,19,05,01,12.20
2008,05,19,05,02,12.20
2008,05,19,05,03,12.20
2008,05,19,05,04,12.20
2008,05,19,05,05,12.20
2008,05,19,05,06,12.30
2008,05,19,05,07,12.30
2008,05,19,05,08,12.30
2008,05,19,05,09,12.30
2008,05,19,05,10,12.30
2008,05,19,05,11,12.30
2008,05,19,05,12,12.30
2008,05,19,05,13,12.30
2008,05,19,05,14,12.30
2008,05,19,05,15,12.30
2008,05,19,05,16,12.30
2008,05,19,05,17,12.30
2008,05,19,05,18,12.30
2008,05,19,05,19,12.30
2008,05,19,05,20,12.30
2008,05,19,05,21,12.30
2008,05,19,05,22,12.30
2008,05,19,05,23,12.30
2008,05,19,05,24,12.30
2008,05,19,05,25,12.30
2008,05,19,05,26,12.30
2008,05,19,05,27,12.20
2008,05,19,05,28,12.20
2008,05,19,05,29,12.20
2008,05,19,05,30,12.20
2008,05,19,05,31,12.20
2008,05,19,05,32,12.20
2008,05,19,05,33,12.20
2008,05,19,05,34,12.20
2008,05,19,05,35,12.20
2008,05,19,05,36,12.20
2008,05,19,05,37,12.20
2008,05,19,05,38,12.20
2008,05,19,05,39,12.20
2008,05,19,05,40,12.20
2008,05,19,05,41,12.20
2008,05,19,05,42,12.20
2008,05,19,05,43,12.30
2008,05,19,05,44,12.30
2008,05,19,05,45,12.30
2008,05,19,05,46,12.40
2008,05,19,05,47,12.40
2008,05,19,05,48,12.40
2008,05,19,05,49,12.40
2008,05,19,05,50,12.40
2008,05,19,05,51,12.40
2008,05,19,05,52,12.30
2008,05,19,05,53,12.30
2008,05,19,05,54,12.30
2008,05,19,05,55,12.30
2008,05,19,05,56,12.20
2008,05,19,05,57,12.20
2008,05,19,05,58,12.20
2008,05,19,05,59,12.20
2008,05,19,06,00,12.10
2008,05,19,06,01,12.10
2008,05,19,06,02,12.10
2008,05,19,06,03,12.10
2008,05,19,06,04,12.10
2008,05,19,06,05,12.10
2008,05,19,06,06,12.10
2008,05,19,06,07,12.10
2008,05,19,06,08,12.10
2008,05,19,06,09,12.10
2008,05,19,06,10,12.10
2008,05,19,06,11,12.10
2008,05,19,06,12,12.10
2008,05,19,06,13,12.10
2008,05,19,06,14,12.10
2008,05,19,06,15,12.10
2008,05,19,06,16,12.10
2008,05,19,06,17,12.10
2008,05,19,06,18,12.20
2008,05,19,06,19,12.20
2008,05,19,06,20,12.20
2008,05,19,06,21,12.20
2008,05,19,06,22,12.20
2008,05,19,06,23,12.20
2008,05,19,06,24,12.30
2008,05,19,06,25,12.20
2008,05,19,06,26,12.20
2008,05,19,06,27,12.20
2008,05,19,06,28,12.20
2008,05,19,06,29,12.20
2008,05,19,06,30,12.20
2008,05,19,06,31,12.20
2008,05,19,06,32,12.20
2008,05,19,06,33,12.20
2008,05,19,06,34,12.20
2008,05,19,06,35,12.20
2008,05,19,06,36,12.20
2008,05,19,06,37,12.20
2008,05,19,06,38,12.20
2008,05,19,06,39,12.10
2008,05,19,06,40,12.10
2008,05,19,06,41,12.10
2008,05,19,06,42,12.10
2008,05,19,06,43,12.00
2008,05,19,06,44,12.00
2008,05,19,06,45,12.00
2008,05,19,06,46,12.00
2008,05,19,06,47,12.00
2008,05,19,06,48,12.00
2008,05,19,06,49,12.00
2008,05,19,06,50,12.00
2008,05,19,06,51,12.00
2008,05,19,06,52,12.00
2008,05,19,06,53,11.90
2008,05,19,06,54,11.90
2008,05,19,06,55,11.90
2008,05,19,06,56,11.90
2008,05,19,06,57,11.90
2008,05,19,06,58,11.90
2008,05,19,06,59,11.80
2008,05,19,07,00,11.80
2008,05,19,07,01,11.80
2008,05,19,07,02,11.80
2008,05,19,07,03,11.80
2008,05,19,07,04,11.80
2008,05,19,07,05,11.80
2008,05,19,07,06,11.80
2008,05,19,07,07,11.80
2008,05,19,07,08,11.80
2008,05,19,07,09,11.80
2008,05,19,07,10,11.80
2008,05,19,07,11,11.80
2008,05,19,07,12,11.80
2008,05,19,07,13,11.80
2008,05,19,07,14,11.90
2008,05,19,07,15,11.90
2008,05,19,07,16,11.90
2008,05,19,07,17,11.90
2008,05,19,07,18,11.90
2008,05,19,07,19,11.90
2008,05,19,07,20,11.90
2008,05,19,07,21,11.90
2008,05,19,07,22,11.90
2008,05,19,07,23,11.90
2008,05,19,07,24,11.90
2008,05,19,07,25,11.90
2008,05,19,07,26,11.90
2008,05,19,07,27,11.90
2008,05,19,07,28,11.90
2008,05,19,07,29,11.90
2008,05,19,07,30,11.90
2008,05,19,07,31,11.90
2008,05,19,07,32,11.90
2008,05,19,07,33,11.90
2008,05,19,07,34,11.90
2008,05,19,07,35,11.90
2008,05,19,07,36,11.90
2008,05,19,07,37,11.90
2008,05,19,07,38,11.90
2008,05,19,07,39,11.90
2008,05,19,07,40,11.90
2008,05,19,07,41,11.90
2008,05,19,07,42,11.90
2008,05,19,07,43,11.90
2008,05,19,07,44,11.90
2008,05,19,07,45,11.90
2008,05,19,07,46,11.90
2008,05,19,07,47,11.90
2008,05,19,07,48,11.90
2008,05,19,07,49,12.00
2008,05,19,07,50,12.00
2008,05,19,07,51,12.00
2008,05,19,07,52,12.10
2008,05,19,07,53,12.10
2008,05,19,07,54,12.20
2008,05,19,07,55,12.20
2008,05,19,07,56,12.30
2008,05,19,07,57,12.40
2008,05,19,07,58,12.40
2008,05,19,07,59,12.50
2008,05,19,08,00,12.60
2008,05,19,08,01,12.70
2008,05,19,08,02,12.70
2008,05,19,08,03,12.80
2008,05,19,08,04,12.80
2008,05,19,08,05,12.90
2008,05,19,08,06,13.00
2008,05,19,08,07,13.10
2008,05,19,08,08,13.10
2008,05,19,08,09,13.20
2008,05,19,08,10,13.30
2008,05,19,08,11,13.40
2008,05,19,08,12,13.50
2008,05,19,08,13,13.60
2008,05,19,08,14,13.70
2008,05,19,08,15,13.70
2008,05,19,08,16,13.80
2008,05,19,08,17,13.80
2008,05,19,08,18,13.90
2008,05,19,08,19,14.00
2008,05,19,08,20,14.00
2008,05,19,08,21,14.10
2008,05,19,08,22,14.10
2008,05,19,08,23,14.20
2008,05,19,08,24,14.20
2008,05,19,08,25,14.30
2008,05,19,08,26,14.40
2008,05,19,08,27,14.40
2008,05,19,08,28,14.40
2008,05,19,08,29,14.50
2008,05,19,08,30,14.50
2008,05,19,08,31,14.60
2008,05,19,08,32,14.60
2008,05,19,08,33,14.60
2008,05,19,08,34,14.70
2008,05,19,08,35,14.70
2008,05,19,08,36,14.80
2008,05,19,08,37,14.80
2008,05,19,08,38,15.00
2008,05,19,08,39,15.00
2008,05,19,08,40,15.00
2008,05,19,08,41,15.00
2008,05,19,08,42,15.00
2008,05,19,08,43,15.00
2008,05,19,08,44,15.00
2008,05,19,08,45,15.00
2008,05,19,08,46,15.00
2008,05,19,08,47,15.00
2008,05,19,08,48,15.00
2008,05,19,08,49,15.00
2008,05,19,08,50,15.00
2008,05,19,08,51,15.00
2008,05,19,08,52,15.00
2008,05,19,08,53,15.00
2008,05,19,08,54,15.00
2008,05,19,08,55,15.00
2008,05,19,08,56,15.00
2008,05,19,08,57,15.00
2008,05,19,08,58,15.00
2008,05,19,08,59,15.00
2008,05,19,09,00,15.00
2008,05,19,09,01,15.00
2008,05,19,09,02,15.00
2008,05,19,09,03,15.00
2008,05,19,09,04,15.00
2008,05,19,09,05,15.00
2008,05,19,09,06,15.00
2008,05,19,09,07,15.10
2008,05,19,09,08,15.10
2008,05,19,09,09,15.10
2008,05,19,09,10,15.10
2008,05,19,09,11,15.20
2008,05,19,09,12,15.20
2008,05,19,09,13,15.20
2008,05,19,09,14,15.20
2008,05,19,09,15,15.20
2008,05,19,09,16,15.20
2008,05,19,09,17,15.20
2008,05,19,09,18,15.20
2008,05,19,09,19,15.20
2008,05,19,09,20,15.20
2008,05,19,09,21,15.20
2008,05,19,09,22,15.10
2008,05,19,09,23,15.10
2008,05,19,09,24,15.10
2008,05,19,09,25,15.10
2008,05,19,09,26,15.10
2008,05,19,09,27,15.10
2008,05,19,09,28,15.10
2008,05,19,09,29,15.00
2008,05,19,09,30,15.00
2008,05,19,09,31,15.00
2008,05,19,09,32,15.00
2008,05,19,09,33,15.00
2008,05,19,09,34,15.00
2008,05,19,09,35,15.00
2008,05,19,09,36,15.00
2008,05,19,09,37,15.00
2008,05,19,09,38,15.00
2008,05,19,09,39,15.00
2008,05,19,09,40,15.00
2008,05,19,09,41,15.00
2008,05,19,09,42,15.00
2008,05,19,09,43,15.00
2008,05,19,09,44,15.00
2008,05,19,09,45,15.00
2008,05,19,09,46,15.00
2008,05,19,09,47,15.00
2008,05,19,09,48,15.00
2008,05,19,09,49,15.00
2008,05,19,09,50,15.00
2008,05,19,09,51,15.00
2008,05,19,09,52,15.00
2008,05,19,09,53,15.00
2008,05,19,09,54,15.00
2008,05,19,09,55,15.00
2008,05,19,09,56,15.00
2008,05,19,09,57,15.00
2008,05,19,09,58,14.90
2008,05,19,09,59,14.90
2008,05,19,10,00,14.80
2008,05,19,10,01,14.80
2008,05,19,10,02,14.80
2008,05,19,10,03,14.80
2008,05,19,10,04,14.80
2008,05,19,10,05,14.80
2008,05,19,10,06,14.80
2008,05,19,10,07,14.80
2008,05,19,10,08,14.80
2008,05,19,10,09,14.90
2008,05,19,10,10,14.90
2008,05,19,10,11,14.90
2008,05,19,10,12,14.90
2008,05,19,10,13,14.90
2008,05,19,10,14,14.90
2008,05,19,10,15,14.90
2008,05,19,10,16,15.00
2008,05,19,10,17,15.00
2008,05,19,10,18,15.00
2008,05,19,10,19,15.00
2008,05,19,10,20,15.00
2008,05,19,10,21,15.00
2008,05,19,10,22,15.00
2008,05,19,10,23,15.00
2008,05,19,10,24,15.00
2008,05,19,10,25,15.00
2008,05,19,10,26,15.00
2008,05,19,10,27,15.00
2008,05,19,10,28,15.00
2008,05,19,10,29,14.90
2008,05,19,10,30,14.90
2008,05,19,10,31,14.90
2008,05,19,10,32,14.90
2008,05,19,10,33,14.80
2008,05,19,10,34,14.80
2008,05,19,10,35,14.80
2008,05,19,10,36,14.80
2008,05,19,10,37,14.80
2008,05,19,10,38,14.80
2008,05,19,10,39,14.80
2008,05,19,10,40,14.80
2008,05,19,10,41,14.80
2008,05,19,10,42,14.80
2008,05,19,10,43,14.80
2008,05,19,10,44,14.80
2008,05,19,10,45,14.80
2008,05,19,10,46,14.80
2008,05,19,10,47,14.80
2008,05,19,10,48,14.80
2008,05,19,10,49,14.80
2008,05,19,10,50,14.80
2008,05,19,10,51,14.80
2008,05,19,10,52,14.80
2008,05,19,10,53,14.80
2008,05,19,10,54,14.80
2008,05,19,10,55,14.80
2008,05,19,10,56,14.80
2008,05,19,10,57,14.90
2008,05,19,10,58,14.90
2008,05,19,10,59,14.90
2008,05,19,11,00,14.80
2008,05,19,11,01,14.80
2008,05,19,11,02,14.80
2008,05,19,11,03,14.80
2008,05,19,11,04,14.70
2008,05,19,11,05,14.70
2008,05,19,11,06,14.70
2008,05,19,11,07,14.70
2008,05,19,11,08,14.70
2008,05,19,11,09,14.80
2008,05,19,11,10,14.90
2008,05,19,11,11,14.90
2008,05,19,11,12,15.00
2008,05,19,11,13,15.00
2008,05,19,11,14,15.00
2008,05,19,11,15,15.00
2008,05,19,11,16,15.00
2008,05,19,11,17,15.00
2008,05,19,11,18,15.00
2008,05,19,11,19,15.00
2008,05,19,11,20,15.00
2008,05,19,11,21,15.00
2008,05,19,11,22,15.00
2008,05,19,11,23,15.00
2008,05,19,11,24,15.00
2008,05,19,11,25,15.10
2008,05,19,11,26,15.10
2008,05,19,11,27,15.10
2008,05,19,11,28,15.20
2008,05,19,11,29,15.20
2008,05,19,11,30,15.20
2008,05,19,11,31,15.20
2008,05,19,11,32,15.20
2008,05,19,11,33,15.30
2008,05,19,11,34,15.30
2008,05,19,11,35,15.20
2008,05,19,11,36,15.20
2008,05,19,11,37,15.20
2008,05,19,11,38,15.20
2008,05,19,11,39,15.20
2008,05,19,11,40,15.10
2008,05,19,11,41,15.10
2008,05,19,11,42,15.00
2008,05,19,11,43,15.00
2008,05,19,11,44,15.00
2008,05,19,11,45,15.00
2008,05,19,11,46,15.00
2008,05,19,11,47,15.00
2008,05,19,11,48,15.00
2008,05,19,11,49,15.00
2008,05,19,11,50,15.00
2008,05,19,11,51,15.00
2008,05,19,11,52,15.00
2008,05,19,11,53,15.00
2008,05,19,11,54,15.00
2008,05,19,11,55,15.00
2008,05,19,11,56,15.00
2008,05,19,11,57,15.00
2008,05,19,11,58,15.00
2008,05,19,11,59,15.00
2008,05,19,12,00,15.00
2008,05,19,12,01,15.00
2008,05,19,12,02,15.00
2008,05,19,12,03,14.90
2008,05,19,12,04,14.80
2008,05,19,12,05,14.80
2008,05,19,12,06,14.80
2008,05,19,12,07,14.80
2008,05,19,12,08,14.80
2008,05,19,12,09,14.80
2008,05,19,12,10,14.70
2008,05,19,12,11,14.70
2008,05,19,12,12,14.70
2008,05,19,12,13,14.60
2008,05,19,12,14,14.50
2008,05,19,12,15,14.50
2008,05,19,12,16,14.40
2008,05,19,12,17,14.40
2008,05,19,12,18,14.40
2008,05,19,12,19,14.40
2008,05,19,12,20,14.40
2008,05,19,12,21,14.40
2008,05,19,12,22,14.40
2008,05,19,12,23,14.40
2008,05,19,12,24,14.40
2008,05,19,12,25,14.40
2008,05,19,12,26,14.40
2008,05,19,12,27,14.40
2008,05,19,12,28,14.30
2008,05,19,12,29,14.20
2008,05,19,12,30,14.20
2008,05,19,12,31,14.10
2008,05,19,12,32,14.00
2008,05,19,12,33,14.00
2008,05,19,12,34,13.90
2008,05,19,12,35,13.90
2008,05,19,12,36,13.90
2008,05,19,12,37,13.90
2008,05,19,12,38,13.90
2008,05,19,12,39,13.90
2008,05,19,12,40,13.90
2008,05,19,12,41,13.90
2008,05,19,12,42,13.90
2008,05,19,12,43,14.00
2008,05,19,12,44,14.00
2008,05,19,12,45,14.10
2008,05,19,12,46,14.10
2008,05,19,12,47,14.00
2008,05,19,12,48,14.00
2008,05,19,12,49,14.00
2008,05,19,12,50,14.00
2008,05,19,12,51,14.00
2008,05,19,12,52,14.10
2008,05,19,12,53,14.10
2008,05,19,12,54,14.10
2008,05,19,12,55,14.10
2008,05,19,12,56,14.10
2008,05,19,12,57,14.10
2008,05,19,12,58,14.10
2008,05,19,12,59,14.10
2008,05,19,13,00,14.20
2008,05,19,13,01,14.20
2008,05,19,13,02,14.10
2008,05,19,13,03,14.10
2008,05,19,13,04,14.10
2008,05,19,13,05,14.10
2008,05,19,13,06,14.10
2008,05,19,13,07,14.10
2008,05,19,13,08,14.10
2008,05,19,13,09,14.10
2008,05,19,13,10,14.10
2008,05,19,13,11,14.20
2008,05,19,13,12,14.20
2008,05,19,13,13,14.20
2008,05,19,13,14,14.20
2008,05,19,13,15,14.20
2008,05,19,13,16,14.30
2008,05,19,13,17,14.20
2008,05,19,13,18,14.20
2008,05,19,13,19,14.20
2008,05,19,13,20,14.20
2008,05,19,13,21,14.20
2008,05,19,13,22,14.20
2008,05,19,13,23,14.30
2008,05,19,13,24,14.30
2008,05,19,13,25,14.30
2008,05,19,13,26,14.30
2008,05,19,13,27,14.20
2008,05,19,13,28,14.20
2008,05,19,13,29,14.20
2008,05,19,13,30,14.20
2008,05,19,13,31,14.20
2008,05,19,13,32,14.20
2008,05,19,13,33,14.20
2008,05,19,13,34,14.20
2008,05,19,13,35,14.20
2008,05,19,13,36,14.20
2008,05,19,13,37,14.20
2008,05,19,13,38,14.20
2008,05,19,13,39,14.20
2008,05,19,13,40,14.30
2008,05,19,13,41,14.30
2008,05,19,13,42,14.30
2008,05,19,13,43,14.40
2008,05,19,13,44,14.40
2008,05,19,13,45,14.40
2008,05,19,13,46,14.50
2008,05,19,13,47,14.50
2008,05,19,13,48,14.50
2008,05,19,13,49,14.50
2008,05,19,13,50,14.50
2008,05,19,13,51,14.50
2008,05,19,13,52,14.50
2008,05,19,13,53,14.50
2008,05,19,13,54,14.50
2008,05,19,13,55,14.50
2008,05,19,13,56,14.50
2008,05,19,13,57,14.50
2008,05,19,13,58,14.50
2008,05,19,13,59,14.50
2008,05,19,14,00,14.40
2008,05,19,14,01,14.40
2008,05,19,14,02,14.40
2008,05,19,14,03,14.40
2008,05,19,14,04,14.40
2008,05,19,14,05,14.40
2008,05,19,14,06,14.40
2008,05,19,14,07,14.40
2008,05,19,14,08,14.40
2008,05,19,14,09,14.40
2008,05,19,14,10,14.40
2008,05,19,14,11,14.40
2008,05,19,14,12,14.40
2008,05,19,14,13,14.30
2008,05,19,14,14,14.30
2008,05,19,14,15,14.30
2008,05,19,14,16,14.30
2008,05,19,14,17,14.30
2008,05,19,14,18,14.30
2008,05,19,14,19,14.40
2008,05,19,14,20,14.40
2008,05,19,14,21,14.40
2008,05,19,14,22,14.40
2008,05,19,14,23,14.40
2008,05,19,14,24,14.50
2008,05,19,14,25,14.50
2008,05,19,14,26,14.60
2008,05,19,14,27,14.60
2008,05,19,14,28,14.70
2008,05,19,14,29,14.70
2008,05,19,14,30,14.80
2008,05,19,14,31,14.80
2008,05,19,14,32,15.00
2008,05,19,14,33,15.00
2008,05,19,14,34,15.00
2008,05,19,14,35,15.00
2008,05,19,14,36,15.00
2008,05,19,14,37,15.00
2008,05,19,14,38,15.00
2008,05,19,14,39,15.00
2008,05,19,14,40,15.00
2008,05,19,14,41,15.10
2008,05,19,14,42,15.20
2008,05,19,14,43,15.20
2008,05,19,14,44,15.30
2008,05,19,14,45,15.30
2008,05,19,14,46,15.30
2008,05,19,14,47,15.30
2008,05,19,14,48,15.30
2008,05,19,14,49,15.20
2008,05,19,14,50,15.10
2008,05,19,14,51,15.00
2008,05,19,14,52,15.00
2008,05,19,14,53,15.00
2008,05,19,14,54,15.00
2008,05,19,14,55,15.00
2008,05,19,14,56,14.90
2008,05,19,14,57,14.90
2008,05,19,14,58,14.80
2008,05,19,14,59,14.80
2008,05,19,15,00,14.70
2008,05,19,15,01,14.70
2008,05,19,15,02,14.70
2008,05,19,15,03,14.70
2008,05,19,15,04,14.70
2008,05,19,15,05,14.70
2008,05,19,15,06,14.60
2008,05,19,15,07,14.60
2008,05,19,15,08,14.60
2008,05,19,15,09,14.60
2008,05,19,15,10,14.60
2008,05,19,15,11,14.70
2008,05,19,15,12,14.70
2008,05,19,15,13,14.70
2008,05,19,15,14,14.80
2008,05,19,15,15,14.90
2008,05,19,15,16,15.00
2008,05,19,15,17,15.00
2008,05,19,15,18,15.00
2008,05,19,15,19,15.00
2008,05,19,15,20,15.00
2008,05,19,15,21,15.00
2008,05,19,15,22,15.00
2008,05,19,15,23,15.00
2008,05,19,15,24,15.00
2008,05,19,15,25,15.00
2008,05,19,15,26,15.00
2008,05,19,15,27,15.00
2008,05,19,15,28,15.10
2008,05,19,15,29,15.10
2008,05,19,15,30,15.10
2008,05,19,15,31,15.00
2008,05,19,15,32,15.00
2008,05,19,15,33,15.00
2008,05,19,15,34,15.00
2008,05,19,15,35,15.00
2008,05,19,15,36,15.00
2008,05,19,15,37,15.00
2008,05,19,15,38,15.00
2008,05,19,15,39,15.00
2008,05,19,15,40,15.00
2008,05,19,15,41,15.00
2008,05,19,15,42,15.00
2008,05,19,15,43,15.00
2008,05,19,15,44,15.00
2008,05,19,15,45,15.00
2008,05,19,15,46,15.00
2008,05,19,15,47,15.00
2008,05,19,15,48,15.00
2008,05,19,15,49,15.00
2008,05,19,15,50,15.00
2008,05,19,15,51,15.00
2008,05,19,15,52,15.00
2008,05,19,15,53,15.00
2008,05,19,15,54,15.00
2008,05,19,15,55,15.00
2008,05,19,15,56,14.90
2008,05,19,15,57,14.90
2008,05,19,15,58,14.80
2008,05,19,15,59,14.80
2008,05,19,16,00,14.80
2008,05,19,16,01,14.80
2008,05,19,16,02,14.80
2008,05,19,16,03,14.80
2008,05,19,16,04,14.70
2008,05,19,16,05,14.70
2008,05,19,16,06,14.80
2008,05,19,16,07,14.70
2008,05,19,16,08,14.70
2008,05,19,16,09,14.80
2008,05,19,16,10,14.80
2008,05,19,16,11,14.80
2008,05,19,16,12,14.80
2008,05,19,16,13,14.80
2008,05,19,16,14,14.80
2008,05,19,16,15,14.80
2008,05,19,16,16,14.80
2008,05,19,16,17,14.80
2008,05,19,16,18,14.80
2008,05,19,16,19,14.80
2008,05,19,16,20,14.80
2008,05,19,16,21,14.80
2008,05,19,16,22,14.70
2008,05,19,16,23,14.70
2008,05,19,16,24,14.70
2008,05,19,16,25,14.70
2008,05,19,16,26,14.70
2008,05,19,16,27,14.60
2008,05,19,16,28,14.50
2008,05,19,16,29,14.40
2008,05,19,16,30,14.40
2008,05,19,16,31,14.30
2008,05,19,16,32,14.20
2008,05,19,16,33,14.20
2008,05,19,16,34,14.20
2008,05,19,16,35,14.20
2008,05,19,16,36,14.10
2008,05,19,16,37,14.10
2008,05,19,16,38,14.10
2008,05,19,16,39,14.10
2008,05,19,16,40,14.10
2008,05,19,16,41,14.10
2008,05,19,16,42,14.00
2008,05,19,16,43,14.00
2008,05,19,16,44,14.00
2008,05,19,16,45,14.00
2008,05,19,16,46,14.00
2008,05,19,16,47,14.10
2008,05,19,16,48,14.10
2008,05,19,16,49,14.10
2008,05,19,16,50,14.10
2008,05,19,16,51,14.10
2008,05,19,16,52,14.10
2008,05,19,16,53,14.10
2008,05,19,16,54,14.20
2008,05,19,16,55,14.20
2008,05,19,16,56,14.20
2008,05,19,16,57,14.20
2008,05,19,16,58,14.20
2008,05,19,16,59,14.30
2008,05,19,17,00,14.30
2008,05,19,17,01,14.30
2008,05,19,17,02,14.30
2008,05,19,17,03,14.30
2008,05,19,17,04,14.30
2008,05,19,17,05,14.30
2008,05,19,17,06,14.40
2008,05,19,17,07,14.40
2008,05,19,17,08,14.40
2008,05,19,17,09,14.40
2008,05,19,17,10,14.50
2008,05,19,17,11,14.50
2008,05,19,17,12,14.50
2008,05,19,17,13,14.50
2008,05,19,17,14,14.50
2008,05,19,17,15,14.50
2008,05,19,17,16,14.50
2008,05,19,17,17,14.50
2008,05,19,17,18,14.50
2008,05,19,17,19,14.60